Location: Presov
(49.0000°N, 21.2500°E)
Time: 00:39:27
(UTC+02:00)

Envisat - Pass Details

Date: 11 June 2023
Orbit: 763 x 764 km, 98.2° (Epoch: 22 September)

Event Time Altitude Azimuth Distance (km) Brightness Sun altitude
Rises 02:46:43 0° 34° (NE) 3,240 8.4 -12.2°
Maximum altitude 02:52:17 10° 84° (E) 2,307 6.0 -11.7°
Drops below altitude 10° 02:53:04 10° 93° (E) 2,327 5.9 -11.6°
Sets 02:57:49 0° 133° (SE) 3,221 6.1 -11.2°
